This is the latest recevied weather packets stored in our database for station/object N3AVN. If no packets are shown the sender has not sent any weather packets the latest 10 day(s).
| Time | Temp. | Humidity | Pressure | Rain* | Wind** | Luminosity | Snow |
|---|---|---|---|---|---|---|---|
| 1777471328 | 13.89° C | 63% | 1014.4 hPa | 0 mm | - | 663 W/m² | - |
| 1777471024 | 13.89° C | 63% | 1014.5 hPa | 0 mm | - | 621 W/m² | - |
| 1777470722 | 13.89° C | 63% | 1014.9 hPa | 0 mm | - | 524 W/m² | - |
| 1777470418 | 12.22° C | 66% | 1014.8 hPa | 0 mm | - | 549 W/m² | - |
| 1777470114 | 13.33° C | 64% | 1015.1 hPa | 0 mm | - | 672 W/m² | - |
| 1777469810 | 12.22° C | 67% | 1015 hPa | 0 mm | - | 602 W/m² | - |
| 1777469506 | 13.89° C | 62% | 1015.1 hPa | 0 mm | - | 552 W/m² | - |
| 1777469201 | 13.33° C | 63% | 1015.2 hPa | 0 mm | - | 582 W/m² | - |
| 1777468900 | 12.22° C | 66% | 1015.3 hPa | 0 mm | - | 432 W/m² | - |
| 1777468598 | 12.78° C | 67% | 1015.3 hPa | 0 mm | - | 426 W/m² | - |
| 1777468294 | 12.78° C | 67% | 1015.5 hPa | 0 mm | - | 458 W/m² | - |
| 1777467990 | 12.78° C | 65% | 1014.9 hPa | 0 mm | - | 362 W/m² | - |
| 1777467687 | 13.89° C | 63% | 1015.2 hPa | 0 mm | - | 379 W/m² | - |
| 1777467382 | 11.67° C | 67% | 1015.2 hPa | 0 mm | - | 352 W/m² | - |
| 1777467078 | 12.78° C | 66% | 1015 hPa | 0 mm | - | 314 W/m² | - |
| 1777466770 | 12.22° C | 65% | 1015.1 hPa | 0 mm | - | 325 W/m² | - |
| 1777466467 | 13.33° C | 62% | 1015.5 hPa | 0 mm | - | 257 W/m² | - |
| 1777466163 | 12.78° C | 63% | 1015.3 hPa | 0 mm | - | 286 W/m² | - |
| 1777465859 | 12.22° C | 65% | 1015.3 hPa | 0 mm | - | 257 W/m² | - |
| 1777465556 | 11.67° C | 65% | 1015.4 hPa | 0 mm | - | 262 W/m² | - |
| 1777465250 | 11.67° C | 64% | 1015.4 hPa | 0 mm | - | 262 W/m² | - |
| 1777464946 | 11.67° C | 64% | 1015.7 hPa | 0 mm | - | 241 W/m² | - |
| 1777464641 | 11.67° C | 66% | 1015.9 hPa | 0 mm | - | 228 W/m² | - |
| 1777464337 | 10.56° C | 71% | 1016.2 hPa | 0 mm | - | 137 W/m² | - |
| 1777464033 | 10.56° C | 71% | 1016 hPa | 0 mm | - | 197 W/m² | - |
* Rain latest hour (hover to see other rain measurements)
** Current wind speed in m/s (hover to see current wind gust speed)